Tracking 18793 objects as of 24-September-2017
HD Live streaming from Space Station
objects crossing your sky now

THORAD AGENA D DEB

Track THORAD AGENA D DEB now!
10-day predictions


NORAD ID: 4177
Int'l Code: 1969-082AV
Perigee: 859.1 km
Apogee: 1,023.7 km
Inclination: 70.1 °
Period: 103.7 minutes
Semi major axis: 7312 km
RCS: 0.0743 m2 (small)
Launch date: September 30, 1969
Source: United States (US)
Launch site: AIR FORCE WESTERN TEST RANGE (AFWTR)

Note: This is SATELLITE DEBRIS
aabbcc
Your satellite tracking list
Your tracking list is empty





NASA's NSSDC Master Catalog

Two Line Element Set (TLE):
1 04177U 69082AV  17267.19231590  .00000240  00000-0  23117-3 0  9990
2 04177  70.0712 100.4207 0112549 185.5413 174.4454 13.88382773413727
Source of the keplerian elements: AFSPC